Cavalier, ND

9:01 AM CDT on May 24, 2018 (GMT -0500)
Cavalier

Weather History for K2C8 - November, 2011

Change the Weather History Date:

Friday, November 18, 2011

  Actual Average (KGAF) Record (KGAF)
Temperature  
Mean Temperature 19 °F -  
Max Temperature 24 °F 31 °F 54 °F (1963)
Min Temperature 14 °F 18 °F -11 °F (1986)
Degree Days  
Heating Degree Days 46    
Moisture  
Dew Point 16 °F    
Average Humidity 85    
Maximum Humidity 93    
Minimum Humidity 74    
Precipitation  
Precipitation 0.02 in - - ()
Sea Level Pressure  
Sea Level Pressure 29.73 in    
Wind  
Wind Speed 8 mph (NNE)    
Max Wind Speed 20 mph    
Max Gust Speed 25 mph    
Visibility 9 miles    
Events Rain , Snow    
Averages and records for this station are not official NWS values.
T = Trace of Precipitation, MM = Missing Value Source: NWS Daily Summary

Daily Weather History Graph

Daily Weather History Graph

Search for Another Location

Airport or City:

Astronomy

Nov. 18, 2011 Rise Set
Actual Time 7:43 AM CST 4:47 PM CST
Civil Twilight 7:08 AM CST 5:22 PM CST
Nautical Twilight 6:30 AM CST 6:00 PM CST
Astronomical Twilight 5:52 AM CST 6:37 PM CST
Moon No Moon Rise 1:08 PM CST (11/18)
Length of Visible Light 10h 13m
Length of Day
9h 03m
Waning Gibbous, 49% of the Moon is Illuminated
Nov 18
Waning Gibbous
Nov 25
New
Dec 2
First Quarter
Dec 10
Full
Dec 17
Last Quarter

Hourly Weather History & Observations

Time (CST) Temp. Windchill Dew Point Humidity Pressure Visibility Wind Dir Wind Speed Gust Speed Precip Events Conditions
12:15 AM 17.6 °F 7.3 °F 15.8 °F 93% 29.74 in 10.0 mi East 8.1 mph - N/A   Scattered Clouds
12:35 AM 17.6 °F 7.3 °F 15.8 °F 93% 29.74 in 10.0 mi East 8.1 mph - N/A   Mostly Cloudy
12:55 AM 19.4 °F 9.5 °F 15.8 °F 86% 29.74 in 10.0 mi East 8.1 mph - N/A   Mostly Cloudy
1:15 AM 19.4 °F 8.6 °F 15.8 °F 86% 29.73 in 10.0 mi East 9.2 mph - N/A   Overcast
1:35 AM 19.4 °F 8.6 °F 15.8 °F 86% 29.72 in 10.0 mi East 9.2 mph 16.1 mph N/A   Overcast
1:55 AM 19.4 °F 7.9 °F 15.8 °F 86% 29.72 in 10.0 mi East 10.4 mph - N/A   Overcast
2:15 AM 19.4 °F 7.9 °F 15.8 °F 86% 29.72 in 10.0 mi East 10.4 mph 16.1 mph N/A   Overcast
2:35 AM 19.4 °F 7.9 °F 15.8 °F 86% 29.70 in 10.0 mi ESE 10.4 mph 17.3 mph N/A   Overcast
2:55 AM 19.4 °F 7.2 °F 15.8 °F 86% 29.69 in 10.0 mi ESE 11.5 mph - N/A   Overcast
3:15 AM 19.4 °F 9.5 °F 15.8 °F 86% 29.70 in 10.0 mi ESE 8.1 mph - N/A   Overcast
3:35 AM 19.4 °F 11.5 °F 15.8 °F 86% 29.71 in 10.0 mi East 5.8 mph - N/A   Mostly Cloudy
3:55 AM 19.4 °F 12.8 °F 15.8 °F 86% 29.70 in 10.0 mi ENE 4.6 mph - N/A   Mostly Cloudy
4:15 AM 19.4 °F 12.8 °F 14.0 °F 80% 29.70 in 10.0 mi ENE 4.6 mph - N/A   Partly Cloudy
4:35 AM 17.6 °F 9.3 °F 14.0 °F 86% 29.69 in 10.0 mi ENE 5.8 mph - N/A   Clear
4:55 AM 17.6 °F 9.3 °F 14.0 °F 86% 29.69 in 10.0 mi NE 5.8 mph - N/A   Partly Cloudy
5:15 AM 15.8 °F 7.2 °F 14.0 °F 93% 29.69 in 10.0 mi NE 5.8 mph - N/A   Partly Cloudy
5:35 AM 15.8 °F 8.6 °F 14.0 °F 93% 29.69 in 10.0 mi NNE 4.6 mph - N/A   Clear
5:55 AM 14.0 °F 5.1 °F 10.4 °F 86% 29.70 in 10.0 mi North 5.8 mph - N/A   Clear
6:35 AM 14.0 °F 5.1 °F 10.4 °F 86% 29.69 in 10.0 mi NNE 5.8 mph - N/A   Clear
6:55 AM 15.8 °F 6.1 °F 12.2 °F 86% 29.69 in 10.0 mi NE 6.9 mph - N/A   Clear
7:15 AM 15.8 °F 8.6 °F 12.2 °F 86% 29.70 in 10.0 mi NE 4.6 mph - N/A   Clear
7:35 AM 15.8 °F 7.2 °F 14.0 °F 93% 29.71 in 10.0 mi NNE 5.8 mph - N/A   Clear
7:55 AM 15.8 °F 8.6 °F 14.0 °F 93% 29.71 in 10.0 mi NNE 4.6 mph - N/A   Scattered Clouds
8:15 AM 15.8 °F 7.2 °F 14.0 °F 93% 29.70 in 10.0 mi NE 5.8 mph - N/A   Scattered Clouds
8:35 AM 17.6 °F 10.7 °F 14.0 °F 86% 29.70 in 10.0 mi NNE 4.6 mph - N/A   Clear
8:55 AM 17.6 °F 9.3 °F 14.0 °F 86% 29.69 in 10.0 mi NE 5.8 mph - N/A   Scattered Clouds
9:35 AM 17.6 °F 10.7 °F 15.8 °F 93% 29.71 in 10.0 mi NNE 4.6 mph - N/A   Unknown
9:55 AM 19.4 °F 11.5 °F 15.8 °F 86% 29.71 in 10.0 mi NE 5.8 mph - N/A   Scattered Clouds
10:15 AM 19.4 °F 12.8 °F 15.8 °F 86% 29.71 in 10.0 mi NNE 4.6 mph - N/A   Mostly Cloudy
10:55 AM 19.4 °F 12.8 °F 15.8 °F 86% 29.72 in 10.0 mi NNE 4.6 mph - N/A   Partly Cloudy
11:35 AM 23.0 °F 14.7 °F 17.6 °F 80% 29.71 in 4.0 mi NE 6.9 mph - N/A   Haze
11:55 AM 23.0 °F 15.8 °F 17.6 °F 80% 29.70 in 10.0 mi NE 5.8 mph - N/A   Clear
12:15 PM 23.0 °F 14.7 °F 17.6 °F 80% 29.70 in 10.0 mi NE 6.9 mph - N/A   Partly Cloudy
12:35 PM 23.0 °F 17.0 °F 17.6 °F 80% 29.70 in 10.0 mi NNE 4.6 mph - N/A   Scattered Clouds
12:55 PM 23.0 °F 18.4 °F 17.6 °F 80% 29.70 in 10.0 mi North 3.5 mph - N/A   Partly Cloudy
1:35 PM 24.8 °F 19.1 °F 17.6 °F 74% 29.69 in 10.0 mi NE 4.6 mph - N/A   Scattered Clouds
1:55 PM 24.8 °F 19.1 °F 17.6 °F 74% 29.70 in 10.0 mi NNE 4.6 mph - N/A   Scattered Clouds
2:15 PM 24.8 °F 20.5 °F 17.6 °F 74% 29.70 in 10.0 mi NNE 3.5 mph - N/A   Scattered Clouds
2:55 PM 24.8 °F 19.1 °F 17.6 °F 74% 29.71 in 10.0 mi NW 4.6 mph - N/A   Overcast
3:15 PM 24.8 °F 16.9 °F 17.6 °F 74% 29.71 in 10.0 mi North 6.9 mph - N/A   Overcast
3:55 PM 24.8 °F 17.9 °F 17.6 °F 74% 29.71 in 10.0 mi NNW 5.8 mph - N/A   Overcast
4:15 PM 24.8 °F 17.9 °F 17.6 °F 74% 29.72 in 10.0 mi NNW 5.8 mph - N/A   Mostly Cloudy
4:35 PM 23.0 °F 15.8 °F 15.8 °F 74% 29.73 in 10.0 mi NW 5.8 mph - N/A   Partly Cloudy
4:55 PM 19.4 °F 12.8 °F 15.8 °F 86% 29.74 in 8.0 mi WNW 4.6 mph - N/A   Clear
5:15 PM 17.6 °F 10.7 °F 14.0 °F 86% 29.74 in 9.0 mi WNW 4.6 mph - N/A   Clear
5:35 PM 17.6 °F 10.7 °F 14.0 °F 86% 29.74 in 9.0 mi West 4.6 mph - N/A   Mostly Cloudy
5:55 PM 19.4 °F 10.4 °F 15.8 °F 86% 29.74 in 10.0 mi West 6.9 mph - N/A   Overcast
6:15 PM 23.0 °F 13.1 °F 17.6 °F 80% 29.75 in 10.0 mi West 9.2 mph - N/A   Overcast
6:35 PM 23.0 °F 12.4 °F 17.6 °F 80% 29.76 in 10.0 mi West 10.4 mph - N/A   Overcast
6:55 PM 23.0 °F 12.4 °F 17.6 °F 80% 29.77 in 10.0 mi West 10.4 mph - N/A   Overcast
7:15 PM 23.0 °F 11.7 °F 17.6 °F 80% 29.77 in 7.0 mi WNW 11.5 mph - N/A   Overcast
7:55 PM 23.0 °F 9.6 °F 19.4 °F 86% 29.79 in 4.0 mi NW 16.1 mph - N/A   Overcast
8:15 PM 21.2 °F 8.3 °F 17.6 °F 86% 29.78 in 7.0 mi NNW 13.8 mph - N/A Snow Light Snow
8:55 PM 21.2 °F 7.3 °F 17.6 °F 86% 29.81 in 3.0 mi NW 16.1 mph - 0.01 in Snow Light Snow
9:15 PM 19.4 °F 5.5 °F 17.6 °F 93% 29.82 in 7.0 mi NW 15.0 mph 18.4 mph N/A Snow Light Snow
9:35 PM 19.4 °F 6.0 °F 17.6 °F 93% 29.82 in 10.0 mi NNW 13.8 mph 21.9 mph N/A Rain Light Freezing Rain
9:55 PM 19.4 °F 3.6 °F 15.8 °F 86% 29.83 in 9.0 mi NNW 19.6 mph 25.3 mph 0.01 in Snow Light Snow
10:15 PM 17.6 °F 2.2 °F 14.0 °F 86% 29.84 in 7.0 mi NNW 17.3 mph 25.3 mph N/A Snow Light Snow
10:35 PM 17.6 °F 3.7 °F 14.0 °F 86% 29.86 in 8.0 mi NNW 13.8 mph 20.7 mph N/A   Overcast
11:15 PM 15.8 °F -0.2 °F 14.0 °F 93% 29.89 in 4.0 mi NNW 17.3 mph 21.9 mph N/A Rain Light Freezing Rain
11:35 PM 15.8 °F -0.2 °F 12.2 °F 86% 29.88 in 7.0 mi North 17.3 mph 23.0 mph N/A Rain Light Freezing Rain
11:55 PM 15.8 °F 0.3 °F 12.2 °F 86% 29.89 in 10.0 mi NNW 16.1 mph 25.3 mph N/A Rain Light Freezing Rain